BEL4LZ EDDF-EBBR

Flight info

Callsign BEL4LZ
Flight time 0h 33m
Altitude 22000
Route SOBRA2L SOBRA Y180 BITBU Y181 GOPAS N852 LNO
Aircraft A319/M-DE3FGIJ1LORVWY/HB1

Departure

Time 2026-05-01 13:17
Airport Frankfurt Main Airport (EDDF)

Arrival

Time 2026-05-01 13:50
Airport Brussels Airport (EBBR)
Time Latitude Longitude Altitude Speed Heading
2026-05-01 12:49 50.04753 8.56881 356 ft 0 kts 295°
2026-05-01 13:07 50.04794 8.57034 361 ft 0 kts 205°
2026-05-01 13:08 50.04788 8.57030 362 ft 3 kts 205°
2026-05-01 13:08 50.04744 8.56998 365 ft 10 kts 205°
2026-05-01 13:08 50.04662 8.56941 356 ft 16 kts 204°
2026-05-01 13:09 50.04543 8.56887 360 ft 18 kts 193°
2026-05-01 13:09 50.04419 8.56848 362 ft 18 kts 188°
2026-05-01 13:09 50.04297 8.56811 360 ft 13 kts 191°
2026-05-01 13:09 50.04232 8.56718 360 ft 15 kts 249°
2026-05-01 13:10 50.04190 8.56530 360 ft 21 kts 250°
2026-05-01 13:10 50.04139 8.56312 353 ft 22 kts 250°
2026-05-01 13:10 50.04081 8.56085 357 ft 23 kts 249°
2026-05-01 13:10 50.04022 8.55842 358 ft 26 kts 250°
2026-05-01 13:11 50.03955 8.55559 350 ft 30 kts 249°
2026-05-01 13:11 50.03881 8.55253 350 ft 30 kts 250°
2026-05-01 13:11 50.03859 8.55155 352 ft 0 kts 250°
2026-05-01 13:12 50.03858 8.55152 352 ft 1 kts 250°
2026-05-01 13:12 50.03850 8.55119 356 ft 6 kts 250°
2026-05-01 13:13 50.03831 8.55036 355 ft 11 kts 249°
2026-05-01 13:13 50.03797 8.54895 348 ft 16 kts 249°
2026-05-01 13:13 50.03756 8.54726 351 ft 18 kts 249°
2026-05-01 13:13 50.03713 8.54545 347 ft 16 kts 250°
2026-05-01 13:14 50.03688 8.54439 346 ft 10 kts 250°
2026-05-01 13:14 50.03654 8.54296 345 ft 18 kts 249°
2026-05-01 13:14 50.03601 8.54077 348 ft 27 kts 249°
2026-05-01 13:14 50.03527 8.53765 338 ft 32 kts 250°
2026-05-01 13:15 50.03448 8.53439 336 ft 32 kts 249°
2026-05-01 13:15 50.03368 8.53106 335 ft 33 kts 249°
2026-05-01 13:15 50.03291 8.52778 335 ft 26 kts 250°
2026-05-01 13:15 50.03206 8.52603 333 ft 19 kts 199°
2026-05-01 13:16 50.03040 8.52596 336 ft 44 kts 179°
2026-05-01 13:16 50.02449 8.52602 335 ft 122 kts 180°
2026-05-01 13:16 50.01409 8.52611 470 ft 164 kts 175°
2026-05-01 13:17 49.98063 8.52739 3007 ft 158 kts 172°
2026-05-01 13:17 49.96962 8.52823 3696 ft 162 kts 172°
2026-05-01 13:18 49.94870 8.52994 4347 ft 202 kts 174°
2026-05-01 13:18 49.93396 8.53105 4970 ft 218 kts 175°
2026-05-01 13:18 49.91862 8.53209 5892 ft 223 kts 176°
2026-05-01 13:18 49.90301 8.53310 6842 ft 227 kts 176°
2026-05-01 13:19 49.88707 8.53414 7742 ft 232 kts 176°
2026-05-01 13:19 49.87080 8.53257 8639 ft 239 kts 189°
2026-05-01 13:19 49.83630 8.51439 9895 ft 277 kts 198°
2026-05-01 13:20 49.81793 8.50388 10628 ft 291 kts 198°
2026-05-01 13:20 49.79815 8.49265 11004 ft 315 kts 198°
2026-05-01 13:20 49.77808 8.47650 11409 ft 339 kts 218°
2026-05-01 13:21 49.75993 8.40868 12859 ft 366 kts 272°
2026-05-01 13:21 49.76373 8.36955 13670 ft 371 kts 281°
2026-05-01 13:21 49.76981 8.33047 14422 ft 376 kts 285°
2026-05-01 13:21 49.77697 8.29130 15147 ft 380 kts 286°
2026-05-01 13:22 49.78440 8.25184 15870 ft 384 kts 286°
2026-05-01 13:22 49.79169 8.21191 16616 ft 387 kts 285°
2026-05-01 13:22 49.79870 8.17146 17361 ft 391 kts 284°
2026-05-01 13:22 49.80542 8.13048 18068 ft 395 kts 283°
2026-05-01 13:23 49.81197 8.08894 18739 ft 399 kts 283°
2026-05-01 13:23 49.81848 8.04692 19385 ft 402 kts 283°
2026-05-01 13:23 49.82504 8.00467 20015 ft 406 kts 284°
2026-05-01 13:23 49.83533 7.96385 20649 ft 409 kts 299°
2026-05-01 13:24 49.84987 7.92593 21349 ft 410 kts 301°
2026-05-01 13:24 49.86440 7.88845 21986 ft 413 kts 301°
2026-05-01 13:24 49.87926 7.85024 22246 ft 414 kts 301°
2026-05-01 13:25 49.90934 7.77268 22314 ft 426 kts 301°
2026-05-01 13:25 49.92458 7.73311 22310 ft 426 kts 301°
2026-05-01 13:25 49.93980 7.69347 22309 ft 429 kts 301°
2026-05-01 13:25 49.95504 7.65373 22309 ft 427 kts 301°
2026-05-01 13:26 49.97025 7.61402 22311 ft 426 kts 301°
2026-05-01 13:26 49.98535 7.57456 22309 ft 425 kts 301°
2026-05-01 13:26 50.00045 7.53502 22315 ft 425 kts 301°
2026-05-01 13:26 50.01554 7.49545 22323 ft 427 kts 301°
2026-05-01 13:27 50.03073 7.45568 22320 ft 428 kts 301°
2026-05-01 13:27 50.04593 7.41583 22317 ft 429 kts 301°
2026-05-01 13:27 50.07633 7.33594 22316 ft 429 kts 301°
2026-05-01 13:28 50.10662 7.25593 22324 ft 429 kts 301°
2026-05-01 13:28 50.12172 7.21593 22321 ft 429 kts 301°
2026-05-01 13:29 50.15184 7.13582 22337 ft 428 kts 301°
2026-05-01 13:29 50.18194 7.05568 22323 ft 428 kts 301°
2026-05-01 13:30 50.24204 6.89529 22338 ft 427 kts 301°
2026-05-01 13:31 50.27197 6.81493 22301 ft 428 kts 300°
2026-05-01 13:31 50.31672 6.69435 22282 ft 428 kts 300°
2026-05-01 13:32 50.34659 6.61362 22250 ft 429 kts 300°
2026-05-01 13:33 50.39120 6.49221 22257 ft 429 kts 300°
2026-05-01 13:33 50.42072 6.41169 22251 ft 429 kts 300°
2026-05-01 13:34 50.45066 6.32984 22245 ft 430 kts 300°
2026-05-01 13:34 50.48018 6.24878 22250 ft 430 kts 300°
2026-05-01 13:35 50.50977 6.16734 22273 ft 428 kts 300°
2026-05-01 13:35 50.52449 6.12676 22279 ft 427 kts 300°
2026-05-01 13:35 50.55385 6.04553 22266 ft 427 kts 300°
2026-05-01 13:36 50.56848 6.00492 22262 ft 427 kts 299°
2026-05-01 13:36 50.58295 5.96452 22219 ft 420 kts 299°
2026-05-01 13:36 50.61133 5.88527 21120 ft 413 kts 299°
2026-05-01 13:37 50.62543 5.84611 20584 ft 410 kts 299°
2026-05-01 13:37 50.63948 5.80712 20057 ft 408 kts 298°
2026-05-01 13:37 50.65339 5.76831 19534 ft 405 kts 298°
2026-05-01 13:37 50.66713 5.72976 19027 ft 403 kts 298°
2026-05-01 13:38 50.69428 5.65324 17950 ft 397 kts 298°
2026-05-01 13:38 50.70773 5.61529 17388 ft 395 kts 298°
2026-05-01 13:38 50.72108 5.57765 16826 ft 392 kts 297°
2026-05-01 13:39 50.73435 5.54021 16275 ft 389 kts 297°
2026-05-01 13:39 50.74746 5.50315 15644 ft 384 kts 297°
2026-05-01 13:39 50.76038 5.46650 14770 ft 380 kts 297°
2026-05-01 13:39 50.77318 5.43016 13919 ft 376 kts 297°
2026-05-01 13:40 50.78580 5.39427 13117 ft 369 kts 297°
2026-05-01 13:40 50.79785 5.36004 12979 ft 344 kts 297°
2026-05-01 13:40 50.80913 5.32806 12813 ft 324 kts 297°
2026-05-01 13:40 50.81991 5.29744 12367 ft 315 kts 296°
2026-05-01 13:41 50.83048 5.26730 11823 ft 311 kts 296°
2026-05-01 13:41 50.84090 5.23748 11269 ft 308 kts 296°
2026-05-01 13:41 50.85117 5.20799 10716 ft 305 kts 296°
2026-05-01 13:41 50.86134 5.17874 10154 ft 302 kts 296°
2026-05-01 13:42 50.87154 5.14986 9550 ft 299 kts 300°
2026-05-01 13:42 50.88585 5.12633 8947 ft 299 kts 326°
2026-05-01 13:42 50.90397 5.11048 8320 ft 297 kts 332°
2026-05-01 13:42 50.92233 5.09600 7700 ft 294 kts 333°
2026-05-01 13:43 50.94063 5.08180 7111 ft 290 kts 333°
2026-05-01 13:43 50.95868 5.06790 6525 ft 287 kts 333°
2026-05-01 13:43 50.97654 5.05422 5902 ft 284 kts 333°
2026-05-01 13:43 50.99352 5.03890 5240 ft 279 kts 316°
2026-05-01 13:44 51.00376 5.01392 4608 ft 268 kts 283°
2026-05-01 13:44 51.00397 4.98532 4050 ft 254 kts 250°
2026-05-01 13:44 50.99849 4.96012 3916 ft 231 kts 247°
2026-05-01 13:44 50.99323 4.93672 3630 ft 221 kts 247°
2026-05-01 13:45 50.98807 4.91390 3213 ft 219 kts 247°
2026-05-01 13:45 50.98293 4.89119 3013 ft 220 kts 247°
2026-05-01 13:45 50.97775 4.86832 3016 ft 220 kts 247°
2026-05-01 13:45 50.97253 4.84532 3019 ft 222 kts 246°
2026-05-01 13:46 50.96731 4.82229 3015 ft 222 kts 246°
2026-05-01 13:46 50.96209 4.79933 3021 ft 221 kts 247°
2026-05-01 13:46 50.95690 4.77649 3014 ft 220 kts 247°
2026-05-01 13:46 50.95168 4.75359 3016 ft 221 kts 247°
2026-05-01 13:47 50.94646 4.73071 2852 ft 219 kts 247°
2026-05-01 13:47 50.94131 4.70813 2592 ft 217 kts 247°
2026-05-01 13:47 50.93625 4.68596 2316 ft 209 kts 248°
2026-05-01 13:47 50.93140 4.66475 2058 ft 199 kts 247°
2026-05-01 13:48 50.92683 4.64475 1787 ft 188 kts 247°
2026-05-01 13:48 50.92253 4.62596 1540 ft 174 kts 247°
2026-05-01 13:48 50.91851 4.60843 1315 ft 165 kts 246°
2026-05-01 13:48 50.91471 4.59188 1100 ft 155 kts 245°
2026-05-01 13:49 50.91112 4.57625 904 ft 147 kts 245°
2026-05-01 13:49 50.90766 4.56120 701 ft 143 kts 245°
2026-05-01 13:49 50.90431 4.54664 501 ft 139 kts 246°
2026-05-01 13:49 50.90106 4.53239 330 ft 136 kts 245°
2026-05-01 13:50 50.89785 4.51842 176 ft 133 kts 245°
2026-05-01 13:50 50.89519 4.50709 175 ft 73 kts 250°
2026-05-01 13:50 50.89365 4.50035 177 ft 52 kts 251°
2026-05-01 13:50 50.89366 4.49674 173 ft 32 kts 302°
2026-05-01 13:51 50.89474 4.49449 165 ft 23 kts 307°
2026-05-01 13:51 50.89576 4.49238 157 ft 24 kts 308°
2026-05-01 13:51 50.89699 4.49170 149 ft 22 kts 16°
2026-05-01 13:51 50.89863 4.49233 140 ft 27 kts 15°
2026-05-01 13:52 50.90058 4.49314 130 ft 31 kts 14°
2026-05-01 13:52 50.90262 4.49396 127 ft 24 kts 12°
2026-05-01 13:52 50.90367 4.49338 121 ft 17 kts 333°
2026-05-01 13:52 50.90482 4.49253 123 ft 19 kts 336°
2026-05-01 13:53 50.90602 4.49166 121 ft 19 kts 336°
2026-05-01 13:53 50.90606 4.48939 117 ft 16 kts 245°
2026-05-01 13:53 50.90551 4.48752 117 ft 21 kts 245°
2026-05-01 13:54 50.90490 4.48538 118 ft 22 kts 245°
2026-05-01 13:54 50.90425 4.48313 120 ft 23 kts 245°
2026-05-01 13:54 50.90375 4.48138 118 ft 12 kts 247°
2026-05-01 13:54 50.90347 4.48050 119 ft 6 kts 228°
2026-05-01 13:55 50.90308 4.48059 119 ft 6 kts 154°
2026-05-01 13:55 50.90275 4.48082 120 ft 4 kts 155°
2026-05-01 13:55 50.90262 4.48092 118 ft 1 kts 155°
2026-05-01 13:55 50.90259 4.48095 118 ft 0 kts 155°